Theta_e
317 317 318 317 317 318 318 319 319 319 319 319 319 319 320 320 321 321 322 323 323 323 324 324 325 325 326 326 327 326 323 319 318 317 310 316 328 334 336 336 336 336 334 317 313 307 304 303 303 303 304 305 304 304 305 306 305 300 295 290 290 288 292 295 294 293 295 295 295 296 296 296 295 298 300 300 298 298 299 300 302 308 314 320 320 324 325 325
317 317 317 317 317 318 318 318 318 318 318 319 319 319 320 320 321 321 322 322 323 323 324 324 325 325 326 325 326 325 318 318 315 314 311 326 333 335 335 335 335 334 330 315 307 303 302 301 300 302 302 301 307 304 308 305 305 297 293 290 288 292 295 296 296 296 295 295 297 296 295 297 296 296 299 297 296 297 297 298 300 302 311 318 320 321 323 324
318 318 317 317 317 318 317 317 317 318 318 319 319 319 320 320 320 321 321 322 322 323 323 324 324 325 325 325 325 324 320 317 310 306 313 328 334 334 335 334 333 334 319 315 312 307 302 301 302 300 301 297 299 301 304 302 303 298 295 290 290 296 296 296 297 297 297 297 297 296 296 297 298 297 300 296 294 295 295 295 297 298 305 315 316 318 320 322
318 317 317 317 317 317 316 317 317 318 318 319 319 319 319 320 320 321 321 321 322 323 323 323 324 324 324 325 325 319 316 309 303 309 320 331 332 334 333 332 330 327 324 319 314 314 306 303 302 300 302 297 297 302 300 302 297 299 294 292 295 295 295 296 297 297 296 297 297 296 296 296 297 298 297 294 294 294 295 297 299 299 302 313 316 317 317 319
318 316 316 317 316 316 316 317 318 318 318 318 318 318 318 319 320 320 321 321 322 322 323 323 323 324 324 324 323 318 310 295 298 316 319 327 331 332 332 330 329 320 314 311 307 305 304 302 300 301 300 294 299 297 294 300 302 298 295 294 296 294 294 297 298 296 295 296 296 294 295 295 299 298 297 295 292 289 295 298 300 302 303 311 315 315 315 317
317 316 316 316 315 315 316 317 317 317 317 317 317 317 318 318 319 320 320 321 321 322 322 323 324 323 324 323 315 318 303 286 306 319 327 330 332 332 331 330 329 320 311 307 305 304 303 301 301 298 297 295 295 292 294 297 300 293 295 295 294 296 295 298 298 296 294 296 295 295 298 298 297 297 298 295 294 295 299 300 300 300 304 312 316 316 314 315
316 315 315 315 314 315 316 315 315 315 316 316 316 317 317 317 319 319 320 320 321 322 322 323 323 324 322 321 314 315 300 301 312 319 329 333 333 333 329 327 327 313 309 306 304 305 303 301 299 298 296 296 294 294 298 297 297 292 293 294 296 295 296 296 297 295 294 295 297 297 298 297 296 296 297 297 296 296 299 301 302 301 304 311 314 315 315 316
315 314 315 315 314 314 315 314 314 314 314 315 315 316 317 317 318 318 319 320 321 321 322 322 323 323 321 317 307 302 301 300 314 318 324 330 317 315 320 318 312 314 310 307 304 302 302 300 298 299 297 294 295 296 298 296 296 293 294 296 296 296 296 296 294 294 295 296 296 296 297 297 295 296 296 296 297 297 300 301 303 304 306 309 313 313 313 315
315 315 314 314 313 313 313 313 313 313 314 315 315 316 316 317 318 318 319 320 320 321 322 323 323 322 319 312 307 299 297 313 316 317 317 312 309 308 314 313 312 309 308 305 305 304 303 299 299 299 294 297 299 296 296 293 291 296 295 295 296 296 296 295 296 296 296 299 296 297 296 296 295 298 297 297 297 298 299 300 303 304 304 307 311 312 311 314
315 315 315 314 313 312 312 312 312 313 314 315 315 316 316 317 318 318 318 319 320 321 322 323 323 322 315 309 300 293 305 314 316 314 312 310 308 310 310 312 309 309 307 305 305 305 303 303 303 303 302 297 298 297 296 294 292 297 295 295 295 296 296 297 296 297 297 297 296 296 295 295 296 297 291 294 298 298 299 299 299 303 303 304 307 309 310 312
316 315 315 314 312 312 312 311 312 313 314 315 316 316 317 317 317 318 318 319 320 321 322 322 323 320 316 312 296 291 314 314 316 309 310 310 310 310 310 310 309 310 307 306 306 306 307 306 306 303 300 296 297 296 295 298 299 297 296 294 295 296 297 296 295 297 296 296 296 296 295 296 296 296 294 297 299 298 299 298 298 298 300 302 304 306 307 309
315 315 314 313 312 312 312 313 313 314 315 315 316 316 316 317 318 318 318 319 320 321 321 322 321 317 310 301 297 298 313 313 311 308 311 313 310 308 311 309 309 312 308 305 309 310 309 308 306 302 294 300 295 297 298 299 298 296 295 292 294 295 296 296 295 295 296 296 297 297 293 292 294 292 298 296 299 297 299 299 298 298 297 298 300 303 304 306
314 313 313 312 312 312 313 313 313 314 315 315 315 316 316 317 317 318 318 319 319 320 321 322 319 318 306 295 298 313 313 312 310 309 309 311 310 310 309 311 313 309 309 306 305 309 309 306 304 300 303 297 295 293 298 300 299 298 296 292 293 292 289 294 296 295 296 297 297 296 285 285 290 296 298 297 299 297 297 296 297 298 297 298 297 298 301 303
314 313 313 313 313 313 313 313 314 314 315 315 315 316 317 317 318 318 319 319 321 321 322 321 314 311 301 293 309 314 313 313 312 310 311 311 311 312 310 312 311 307 311 306 307 305 311 308 303 302 303 297 297 303 299 297 296 292 294 291 287 285 286 293 296 294 295 297 296 294 286 286 290 293 296 296 299 298 297 296 295 296 297 298 298 298 298 301
314 314 314 314 313 313 313 313 314 315 315 315 316 316 317 317 318 319 320 320 321 322 322 321 313 302 294 298 307 313 327 318 309 310 313 311 308 308 308 308 308 307 306 307 307 308 307 309 303 298 298 301 300 296 292 291 292 293 288 284 286 286 287 294 297 294 293 296 297 293 286 288 292 294 293 298 297 297 295 294 295 296 297 298 298 298 298 300
316 316 316 316 314 314 314 314 316 316 316 316 316 316 317 318 318 319 320 320 322 323 317 317 316 302 294 294 310 322 315 307 309 312 310 312 312 308 308 307 310 308 308 307 308 308 306 304 300 298 298 299 295 289 288 288 288 290 285 284 287 285 288 292 296 295 294 295 296 293 286 288 291 295 297 296 298 296 295 295 295 296 297 297 298 299 299 300
317 317 315 315 314 315 315 316 316 317 317 317 317 317 318 318 319 320 320 321 318 317 314 305 308 306 294 301 306 307 304 310 312 312 312 310 308 309 308 308 306 306 307 307 307 305 304 301 300 299 297 291 291 291 286 283 283 287 288 286 286 286 288 286 291 294 295 294 292 293 291 289 291 293 293 296 297 296 295 296 296 297 297 297 297 299 300 300
317 316 316 316 316 316 316 316 317 317 317 317 317 317 315 319 321 318 319 318 315 313 313 312 302 297 293 300 297 299 308 308 310 308 308 309 307 308 306 304 305 303 305 302 304 302 302 297 296 292 292 293 292 287 283 281 286 283 287 286 286 287 289 288 288 291 295 293 292 290 290 291 294 295 294 296 295 296 296 296 296 296 297 297 296 298 300 301
318 317 317 317 317 317 317 317 317 317 317 318 319 322 322 320 316 313 314 313 298 294 293 296 292 287 287 294 302 307 310 310 311 309 306 308 310 309 308 306 303 302 299 295 296 299 297 294 294 290 288 289 290 290 287 290 289 288 287 285 285 287 286 287 290 294 294 291 290 289 289 291 293 294 296 296 295 296 297 296 295 295 296 297 297 298 299 300
318 318 318 318 317 318 317 317 317 317 318 312 310 311 308 305 303 299 302 303 297 294 295 297 297 299 302 304 305 307 310 311 304 306 309 309 308 306 304 304 302 300 296 292 297 297 298 287 287 287 288 290 291 291 292 293 289 289 288 287 287 286 289 291 292 293 293 290 288 290 289 289 291 292 294 295 294 292 294 295 296 296 296 296 296 298 299 299
319 319 318 318 318 318 317 317 317 317 317 309 308 305 295 297 290 290 293 296 296 300 298 299 300 299 302 305 306 305 302 302 304 304 309 310 307 302 299 300 294 295 293 295 295 296 293 288 290 291 294 292 293 292 290 290 289 289 287 287 286 287 287 291 291 293 291 291 286 286 287 288 290 292 292 293 292 293 293 294 294 296 296 297 297 298 298 299
319 319 319 318 318 318 318 317 317 317 317 309 307 305 300 301 303 303 296 290 296 301 301 300 301 301 305 304 305 307 305 299 301 304 309 308 304 297 298 296 292 290 293 296 293 289 287 287 288 293 293 292 291 291 289 290 289 288 286 285 285 286 289 292 291 291 292 290 287 285 287 290 291 292 293 292 294 297 297 296 297 296 295 295 296 297 299 298
319 319 319 319 318 319 318 318 317 317 306 305 304 303 304 307 307 305 307 292 293 303 298 298 298 298 301 302 306 307 299 295 296 302 304 306 301 299 296 293 291 289 295 294 290 287 285 287 293 294 292 292 291 289 289 287 287 286 286 284 283 285 289 285 287 290 293 290 287 286 287 291 293 293 293 295 295 296 296 295 295 295 296 295 296 297 299 298
319 319 319 319 319 319 319 318 318 312 306 305 305 306 309 307 307 308 303 291 292 298 299 299 297 299 298 299 304 304 297 297 299 298 305 302 297 298 295 292 291 291 291 292 291 289 287 291 294 293 292 292 290 289 288 287 286 286 287 284 285 289 290 287 288 289 289 290 291 289 287 287 288 289 289 292 294 295 296 295 294 295 296 297 297 296 297 298
319 319 319 319 318 319 318 317 308 306 307 305 304 307 309 309 307 307 300 292 290 295 303 300 301 301 302 307 308 301 298 299 301 303 304 302 297 296 295 296 292 288 291 291 291 290 289 291 295 293 293 291 290 289 288 286 286 284 287 289 288 288 289 291 291 288 282 281 286 289 279 278 282 286 288 291 288 291 291 293 294 295 296 295 296 297 297 298
319 319 319 318 319 319 318 309 307 308 306 304 307 309 308 306 306 305 296 284 282 289 294 291 300 294 308 301 302 301 298 295 300 303 304 304 304 298 297 294 293 288 290 291 290 289 289 293 294 292 291 289 289 288 289 288 283 284 285 292 291 290 289 288 287 285 280 279 288 289 281 279 283 288 291 291 291 292 291 290 294 296 296 294 296 297 298 299
319 319 319 319 319 318 309 305 311 309 305 306 310 310 310 309 308 306 288 280 277 290 288 297 294 296 303 300 301 296 285 287 302 302 302 306 301 303 294 290 293 293 294 291 288 288 291 292 291 291 290 288 287 288 291 289 285 282 288 291 291 291 290 289 286 285 281 282 285 288 285 279 282 288 288 291 289 289 289 290 292 294 296 296 294 296 297 298
320 319 319 319 319 316 310 310 308 306 307 309 309 308 308 309 309 300 286 274 271 293 291 290 297 304 303 301 300 291 292 299 294 298 301 303 303 297 292 289 291 291 292 289 284 288 292 289 291 290 289 286 286 287 291 290 286 286 292 291 291 291 289 288 286 283 285 282 280 280 287 281 278 283 287 288 287 286 288 291 292 293 293 292 294 296 296 298
318 319 318 319 319 318 315 310 308 308 309 310 309 308 312 307 302 289 280 272 290 290 301 292 304 302 298 300 295 294 294 297 291 297 301 302 302 297 291 291 291 290 292 291 287 289 292 291 292 292 290 287 289 290 291 291 289 292 292 292 291 289 288 286 281 285 280 278 278 282 285 277 281 282 287 286 285 286 288 290 291 292 292 291 296 297 298 298
317 318 318 319 318 316 314 313 308 311 310 311 309 309 309 302 293 284 275 270 293 286 293 295 294 293 294 293 292 295 292 295 296 298 299 297 297 298 297 298 295 291 291 292 289 292 293 295 295 293 290 290 289 292 291 292 291 292 290 290 287 285 282 281 280 279 278 274 277 283 286 282 278 281 283 286 287 288 290 288 288 296 297 297 297 296 297 298
316 316 318 318 313 314 314 308 310 310 311 310 309 308 302 293 284 277 270 280 293 290 292 291 290 295 291 290 288 291 293 293 295 295 293 297 295 294 294 291 293 285 283 285 287 288 292 292 292 292 294 292 291 291 291 292 292 291 287 282 281 280 278 278 278 277 275 273 277 282 286 283 276 277 283 287 287 288 290 294 293 297 299 298 297 297 296 296
315 316 317 317 318 317 311 308 312 312 312 310 308 303 293 282 286 277 274 295 286 288 286 286 291 290 291 292 289 289 290 293 294 293 291 289 289 290 289 285 287 282 283 282 283 286 287 287 290 293 294 293 288 289 288 286 289 289 285 283 278 275 276 274 275 275 273 275 280 280 283 282 282 284 288 288 290 289 290 292 294 296 297 297 296 297 296 294
314 315 316 317 316 314 315 313 312 313 312 309 304 298 289 279 274 282 283 286 283 289 287 292 290 291 290 289 287 289 290 288 292 292 291 291 289 289 291 289 290 288 280 282 283 284 283 284 291 291 291 294 291 288 284 285 288 286 285 280 276 273 272 268 269 271 272 277 279 283 285 282 283 286 289 293 295 292 290 290 292 296 297 297 298 296 295 295
313 313 313 314 317 316 314 313 313 313 310 306 300 292 287 277 276 291 286 286 289 293 292 289 290 289 290 287 287 290 285 289 291 290 291 288 287 285 287 290 290 288 283 281 282 282 278 279 285 288 286 292 292 291 290 286 288 288 285 286 281 275 272 269 270 272 274 277 279 280 280 278 277 283 288 290 291 290 291 292 292 292 293 295 295 295 295 294
312 312 313 315 315 315 313 314 314 312 307 303 298 290 282 281 284 282 284 288 289 293 290 292 289 288 286 287 289 290 288 285 291 290 288 288 285 284 285 288 290 289 284 284 282 280 283 282 282 293 291 293 292 292 291 288 287 286 286 285 278 282 277 274 271 272 271 274 275 277 279 279 283 286 289 289 290 292 291 288 291 295 294 295 297 297 296 296
311 310 314 312 313 314 313 314 314 311 306 300 292 286 284 287 283 289 286 296 294 290 289 290 288 285 283 284 290 288 292 287 289 288 287 287 287 287 288 288 290 292 287 284 283 280 282 279 287 292 291 293 293 292 291 291 281 283 287 283 284 284 284 278 276 279 275 273 276 274 280 283 284 287 291 295 294 293 291 289 289 291 292 293 296 296 295 295
306 310 306 309 312 313 313 314 313 309 305 299 290 285 289 290 295 294 298 295 295 293 289 285 285 285 283 283 285 287 289 291 288 286 283 288 287 288 288 290 292 292 292 290 284 284 283 279 286 288 288 290 290 291 292 290 288 286 282 285 290 288 285 280 274 273 273 273 275 276 278 280 276 281 283 284 287 288 288 290 292 292 291 291 293 292 293 293
304 305 307 308 312 313 314 314 312 307 302 296 289 291 293 290 298 298 300 298 295 293 288 287 287 289 285 285 285 287 289 287 287 286 283 288 285 292 291 289 292 294 294 291 288 285 287 279 283 287 287 289 291 293 291 292 292 286 282 289 287 279 279 280 275 273 270 268 271 274 278 280 281 284 287 285 284 286 288 288 289 291 292 293 294 293 292 291
305 305 299 306 314 313 312 314 310 304 298 292 286 288 291 292 296 295 299 300 298 295 288 289 287 289 288 285 287 289 289 284 288 286 284 285 284 290 292 294 291 294 295 293 288 286 286 281 280 286 287 289 288 288 283 285 289 290 290 289 287 282 277 277 280 273 275 271 270 274 277 279 284 284 285 287 287 288 291 288 289 291 292 293 293 293 294 293
301 299 297 309 313 312 311 311 305 300 295 287 287 288 295 291 295 297 297 299 295 294 292 290 291 288 289 288 290 287 289 288 288 287 286 287 288 292 291 295 292 292 294 295 291 292 285 283 276 283 284 287 284 286 284 288 286 286 285 284 287 284 284 280 282 279 276 268 269 270 274 278 285 286 288 288 289 290 290 290 291 292 293 292 292 293 293 294
303 298 298 311 311 311 310 304 297 293 291 293 293 292 293 292 295 297 298 300 298 301 295 292 293 289 289 289 288 290 288 287 288 285 286 287 288 283 292 293 294 292 292 292 291 289 283 283 279 281 282 283 284 288 290 290 292 290 289 286 288 284 280 276 276 281 275 277 271 269 275 282 288 289 291 290 290 288 288 290 291 291 291 291 292 294 295 295
298 290 295 311 311 311 304 294 293 295 293 290 289 293 292 300 295 296 298 299 299 295 299 295 292 293 290 291 290 287 287 286 287 287 286 286 290 289 293 298 295 296 293 288 290 292 290 283 280 278 283 286 287 287 290 291 291 290 290 288 290 287 285 278 276 274 276 278 275 273 274 283 289 290 288 289 289 294 293 289 290 292 291 292 295 294 294 294
295 292 304 309 311 308 300 292 294 293 292 294 298 295 299 297 295 297 296 298 295 298 296 295 295 292 293 292 292 291 290 284 287 287 287 289 289 293 294 296 296 294 295 288 292 292 294 284 281 279 284 284 289 289 289 289 291 289 289 286 285 285 284 284 281 277 280 276 279 276 276 283 290 289 292 291 289 289 290 291 293 292 293 294 295 295 295 295
294 293 298 308 310 306 297 287 287 290 292 295 295 295 298 297 296 295 296 297 296 295 294 295 296 297 295 293 292 289 294 285 290 288 286 289 288 295 292 293 296 291 291 289 290 292 286 283 284 276 274 278 281 284 286 286 288 282 282 286 287 287 286 282 280 278 280 279 282 278 276 282 287 286 291 289 291 293 292 289 292 294 292 291 293 293 293 292
292 293 293 300 304 304 293 295 292 291 292 292 293 292 293 294 297 298 297 296 298 296 295 294 296 297 295 296 293 293 293 291 285 287 289 288 290 294 291 292 293 290 292 292 295 295 290 285 284 278 276 275 272 277 276 279 285 284 282 285 289 288 285 284 281 280 279 279 280 279 281 287 290 289 290 289 287 290 290 290 291 293 292 294 295 294 293 292
288 280 290 292 300 299 299 298 294 291 290 291 290 292 293 291 295 297 298 297 299 298 297 297 297 297 294 294 291 292 292 294 290 286 286 286 288 290 291 290 292 291 293 295 293 293 286 285 287 285 283 281 281 277 281 286 282 283 283 286 287 288 288 287 282 281 281 284 282 283 285 287 288 290 287 288 287 290 290 290 291 292 292 291 290 292 292 293
294 285 284 280 294 295 293 295 291 292 289 294 287 292 289 291 293 294 299 293 298 297 296 296 295 293 292 293 291 290 292 291 293 291 290 289 291 291 294 293 292 292 293 293 293 289 286 286 287 286 285 286 284 286 289 289 286 287 286 285 287 287 287 286 284 283 287 280 280 286 286 284 287 290 290 288 289 289 289 290 291 291 291 293 293 291 293 291
284 288 290 288 286 283 287 289 293 292 293 293 289 290 289 290 291 289 295 297 296 298 294 294 295 295 295 293 292 286 289 290 290 287 291 291 290 293 291 294 291 292 290 289 291 291 286 284 284 286 284 287 287 287 288 289 287 287 287 286 285 286 285 285 286 288 287 283 282 287 285 285 288 290 290 289 291 292 291 293 293 293 291 291 291 292 293 293
291 290 288 292 285 285 288 289 293 292 291 292 289 290 287 289 289 292 292 292 294 293 296 288 292 294 295 295 293 289 290 286 286 291 288 288 289 289 288 290 292 290 290 286 288 288 288 286 286 284 284 286 285 285 287 288 286 286 286 286 286 285 286 287 288 289 289 286 288 288 288 286 289 291 291 290 291 291 292 292 292 292 293 293 292 292 293 294
286 286 282 290 291 288 286 285 288 289 287 292 287 289 289 288 288 291 293 293 288 291 296 292 292 294 294 294 294 290 291 292 292 288 292 291 288 289 288 291 287 288 288 287 290 290 290 286 288 285 284 285 287 286 286 287 286 285 287 287 287 287 286 286 287 288 288 288 289 289 287 287 293 293 292 294 295 293 292 293 294 294 294 293 293 293 295 296
291 294 293 287 284 286 287 285 285 287 285 287 286 288 289 289 288 290 290 295 293 290 293 292 294 292 294 294 294 293 295 295 295 295 295 294 289 293 292 288 292 287 287 287 287 289 290 285 286 285 284 285 288 287 286 285 286 286 286 287 288 287 285 286 286 289 287 286 288 287 286 287 293 293 294 295 293 292 294 295 296 294 293 293 294 295 295 295
290 292 293 290 283 288 283 284 285 286 283 286 287 288 288 288 291 290 286 291 295 296 295 295 295 293 291 292 292 295 297 297 297 297 298 298 299 296 298 295 295 290 287 287 287 287 287 286 284 284 282 283 285 284 284 285 285 283 284 287 289 289 290 291 292 293 291 291 286 285 287 293 294 294 291 294 295 294 295 295 296 295 293 293 294 295 296 296
Wind_Speed
8 6 7 6 6 5 5 5 6 5 4 3 3 3 3 3 4 4 5 5 6 6 7 7 8 8 8 9 9 9 7 2 2 1 1 1 0 0 1 2 2 2 2 1 1 1 0 2 1 2 1 2 1 1 1 1 0 2 1 3 1 3 2 1 1 2 2 6 4 4 4 5 3 0 0 2 4 2 2 5 1 8 7 4 4 7 10 9
9 7 8 7 7 7 6 5 5 4 4 3 4 3 4 4 5 5 6 6 6 7 7 8 8 8 9 9 8 8 4 2 1 0 4 0 3 2 2 1 2 3 2 1 1 1 1 2 3 2 2 0 1 1 1 1 1 2 1 3 2 1 0 1 1 2 5 3 7 6 4 6 5 6 2 3 1 2 2 1 4 6 4 5 6 7 10 9
10 9 7 7 7 7 5 4 4 4 4 4 4 4 4 5 5 6 7 7 7 7 8 8 8 8 9 8 9 7 1 2 1 2 1 1 1 3 2 1 1 1 1 1 1 1 2 3 3 3 1 1 1 2 1 1 1 2 3 2 1 2 1 3 2 1 2 9 6 5 4 2 2 4 1 2 5 3 5 5 1 4 4 6 6 5 7 8
10 9 7 8 7 6 5 5 5 4 4 4 4 5 6 5 6 7 7 8 8 8 7 7 8 8 8 8 8 4 1 3 0 1 1 1 2 3 3 1 1 1 0 0 1 0 2 2 1 3 0 2 1 1 2 1 2 1 4 2 2 2 2 3 2 2 2 6 6 6 1 4 3 4 4 4 4 3 5 6 9 10 11 11 9 8 7 8
10 9 7 8 6 6 5 5 5 4 3 3 5 4 5 6 6 7 7 8 8 8 7 7 7 8 8 7 8 1 1 3 2 0 1 2 3 4 3 1 1 1 0 1 4 3 2 2 1 1 1 1 1 1 1 1 0 2 1 2 2 1 3 2 0 3 2 1 7 4 6 4 1 2 2 6 4 5 7 7 9 10 13 14 12 11 7 8
11 9 8 7 6 5 6 5 4 2 2 3 3 4 4 5 7 7 7 8 8 8 7 7 7 8 8 7 2 1 1 3 1 0 3 4 5 4 3 1 0 0 1 2 0 2 1 2 1 1 0 2 3 4 1 2 0 2 1 1 3 0 4 0 1 4 4 3 4 3 1 2 3 1 3 6 5 2 3 4 9 7 15 17 13 12 9 9
10 8 7 6 5 6 5 5 2 1 2 2 3 4 4 4 6 6 7 7 7 7 7 7 7 8 10 3 0 1 2 1 1 2 3 4 5 3 2 2 1 1 2 2 2 0 1 0 1 1 1 0 1 2 2 1 1 5 2 1 2 4 3 1 1 3 4 8 2 1 1 2 1 2 0 2 4 6 4 3 4 5 8 12 13 14 16 16
11 9 7 7 3 3 5 3 3 1 1 1 2 3 4 4 5 6 6 7 7 7 7 7 7 8 8 1 1 2 1 2 1 3 5 4 3 2 1 0 0 1 1 1 0 1 0 1 2 1 0 2 3 5 1 4 2 2 1 0 1 3 1 1 1 1 2 2 1 4 3 1 4 2 0 4 7 4 4 3 7 9 12 9 11 12 10 10
10 9 8 5 6 4 4 3 2 0 1 1 2 3 4 4 5 5 6 6 6 7 6 7 7 8 0 1 2 3 2 0 3 4 1 3 4 4 4 1 1 0 1 1 1 1 1 1 0 2 2 1 1 5 1 4 1 0 2 3 1 1 1 1 1 1 1 0 2 1 0 1 3 1 3 7 6 7 4 5 8 10 11 11 12 13 12 12
10 9 9 7 7 7 5 4 2 2 2 1 1 2 3 4 5 5 5 6 6 6 5 6 7 6 1 1 2 1 1 2 4 2 1 1 4 4 4 1 2 1 1 1 2 3 1 1 1 3 2 2 2 3 0 4 1 1 4 3 5 3 2 0 1 0 0 1 1 1 0 0 2 2 6 2 9 5 6 6 5 10 11 10 9 10 10 12
11 11 10 9 7 7 6 4 4 3 2 0 1 2 3 4 4 5 5 6 6 5 5 6 6 4 1 0 4 4 1 2 1 4 2 2 4 5 0 3 1 1 2 1 3 1 2 2 1 1 1 1 3 2 2 1 1 5 6 4 3 1 1 0 2 1 1 0 0 2 1 0 2 1 7 6 2 8 9 6 6 7 8 9 9 10 9 10
12 11 9 9 8 7 6 5 5 3 2 1 2 3 3 4 4 4 5 6 6 5 5 5 5 0 1 3 4 2 1 3 3 3 3 0 2 5 4 4 0 0 1 0 0 0 1 0 1 1 2 0 1 1 1 0 3 5 6 2 1 2 1 1 3 2 1 1 0 1 2 2 1 4 12 4 1 7 8 7 7 7 7 7 7 8 7 11
11 10 10 9 9 8 7 6 4 3 2 1 2 3 4 5 5 5 5 5 5 5 5 4 3 0 2 1 2 3 3 3 3 5 3 1 0 1 1 1 1 0 2 3 3 1 1 1 2 5 1 3 2 1 2 2 1 3 2 4 3 1 3 6 0 1 2 1 1 0 2 7 6 12 10 1 3 4 6 6 6 6 6 6 6 7 8 8
10 11 11 10 8 7 6 6 4 4 2 2 2 3 5 6 6 6 5 6 6 6 3 2 2 1 1 1 2 2 3 3 4 2 1 2 1 1 2 2 2 2 2 5 2 2 0 0 3 4 1 4 2 1 3 2 3 3 1 3 2 2 2 3 2 2 3 1 1 2 2 8 6 9 6 4 7 7 7 6 6 5 6 6 6 7 9 10
11 11 10 11 10 7 5 5 5 3 3 3 4 5 6 7 7 7 7 6 6 3 2 2 0 2 1 0 2 2 3 0 3 0 1 2 2 2 1 2 3 3 2 4 1 1 1 1 3 2 1 0 3 3 2 1 1 0 4 2 2 2 3 2 1 5 4 1 1 3 1 8 9 9 5 2 4 6 5 5 5 5 5 7 6 7 8 10
11 11 10 9 8 7 7 6 4 4 4 5 5 7 8 8 7 8 7 6 7 5 1 0 0 1 3 1 0 4 1 1 1 1 1 2 1 2 3 2 0 1 1 1 1 1 2 6 4 2 2 2 3 6 4 3 2 2 3 1 1 1 1 1 1 1 5 2 1 3 5 5 3 3 1 3 1 4 6 6 6 7 8 7 7 7 8 8
9 10 9 8 8 8 6 6 6 5 5 6 7 8 7 7 6 6 7 5 2 2 2 1 1 0 2 1 2 0 2 2 2 1 3 0 1 0 3 1 1 1 3 2 4 3 3 4 1 1 2 3 3 6 7 2 1 2 1 3 3 3 1 2 3 1 1 3 3 1 1 7 6 8 5 3 1 2 4 6 7 7 7 8 8 8 9 9
11 12 10 9 9 7 7 6 3 3 5 7 7 5 4 5 5 4 1 0 1 2 2 2 1 1 3 2 2 4 1 3 1 2 1 2 1 2 1 1 0 2 2 2 3 2 1 1 2 3 1 1 2 2 5 3 6 4 1 1 4 0 7 4 3 2 4 1 2 0 4 9 13 11 6 7 4 5 8 9 9 9 9 8 6 8 10 10
10 11 9 9 9 7 5 3 3 3 5 9 9 7 5 2 0 1 0 1 2 3 0 2 3 5 3 8 1 3 2 2 1 1 1 1 1 0 0 1 4 2 1 2 1 2 1 3 5 4 3 2 3 6 7 2 5 3 7 5 2 1 1 1 2 1 2 1 4 4 6 7 10 11 13 6 6 8 11 9 7 7 8 8 8 9 10 10
10 10 10 9 7 6 4 1 2 3 6 5 5 2 2 2 1 1 1 0 1 3 1 6 3 2 3 5 4 1 1 1 4 2 1 1 0 1 2 2 3 4 3 2 1 1 1 3 4 4 7 7 4 6 7 4 6 4 3 4 2 3 1 1 0 1 0 0 5 7 7 6 8 10 12 11 6 5 7 9 10 9 9 9 8 9 11 11
11 10 9 7 6 5 3 1 1 3 4 2 1 1 3 5 7 2 2 3 2 2 2 2 1 3 1 4 3 4 5 1 1 0 0 1 0 3 1 2 2 1 0 3 5 2 5 4 3 6 6 7 8 4 4 4 4 4 4 3 2 1 2 1 1 1 3 1 2 1 4 9 11 10 11 10 7 11 9 10 10 13 12 10 10 12 12 13
10 9 9 7 6 5 3 1 2 4 4 0 1 2 1 1 0 0 2 1 1 1 5 3 1 3 2 3 3 2 2 3 2 1 2 0 0 3 1 3 3 6 0 3 3 3 2 4 5 7 4 2 4 6 4 4 4 3 3 2 2 1 1 1 1 2 1 1 7 3 5 11 11 10 9 8 12 13 10 11 12 12 10 8 9 11 13 8
9 9 9 8 6 5 3 1 1 3 2 2 2 1 1 1 1 2 1 3 2 1 2 1 2 2 1 4 1 2 3 3 5 2 3 0 1 1 4 4 4 2 1 3 6 3 2 4 10 5 3 4 2 5 6 5 5 4 3 2 3 2 1 3 1 1 1 2 3 1 5 14 13 7 11 14 12 12 9 6 8 7 10 10 12 13 11 11
9 9 8 7 6 5 3 2 1 1 0 2 1 0 1 1 2 2 1 2 2 1 1 2 2 3 3 4 3 4 3 1 5 5 3 4 6 3 4 4 6 3 6 4 7 7 6 2 1 4 2 3 2 1 4 2 1 2 2 2 1 1 0 3 1 1 1 2 1 4 5 10 7 4 5 7 6 9 12 8 7 9 9 10 8 7 8 11
8 8 8 7 7 5 3 3 2 1 2 3 0 2 4 3 2 2 1 1 2 0 0 2 2 1 2 2 1 4 1 1 1 1 3 5 4 3 3 2 3 4 5 6 5 3 5 4 1 5 2 3 4 1 1 6 0 1 2 4 4 2 4 1 2 2 7 3 1 1 6 5 5 4 6 9 5 4 3 3 10 12 10 7 9 12 8 6
9 8 7 7 7 6 5 1 1 1 2 1 1 1 2 3 2 2 1 3 1 2 3 6 1 4 2 1 1 2 1 0 1 2 4 2 1 2 1 1 2 5 5 4 6 3 6 1 3 5 3 3 3 2 2 4 3 1 2 1 3 4 5 3 1 2 2 0 1 1 1 10 5 10 9 10 10 14 10 7 10 10 11 6 9 7 7 7
9 9 9 8 8 7 1 2 1 1 2 0 0 0 1 1 1 1 3 4 4 4 6 1 1 1 2 3 5 3 5 4 0 4 3 2 1 1 4 3 1 1 2 2 3 3 2 2 5 3 4 3 3 2 2 6 6 2 1 1 2 3 2 2 5 3 3 2 4 1 4 4 10 12 5 12 10 10 8 11 13 13 11 9 5 5 7 7
7 10 10 10 10 7 1 0 1 1 0 1 1 1 1 1 1 1 3 3 3 3 3 3 1 2 1 2 4 4 1 6 4 2 0 2 0 2 3 5 7 7 2 4 7 3 2 3 3 2 1 2 5 3 2 6 5 2 1 5 4 5 4 4 4 2 0 3 8 3 0 3 6 10 5 1 7 5 9 13 14 12 10 6 4 8 6 5
4 9 11 11 11 9 3 2 1 1 2 1 1 1 0 0 1 5 5 2 1 3 4 4 4 1 1 2 3 2 2 4 2 1 3 2 3 2 1 4 3 3 0 6 7 2 2 4 5 7 5 4 3 1 1 6 3 2 1 3 5 6 5 4 2 2 3 2 8 3 3 2 11 5 5 1 1 6 9 10 9 9 9 7 5 3 3 2
11 4 12 12 7 0 3 0 1 1 1 0 0 0 1 2 2 2 3 5 2 2 1 1 2 6 3 9 1 0 3 2 2 0 1 2 2 3 1 1 2 1 1 4 4 4 0 1 3 4 4 4 5 1 1 1 3 5 6 7 5 7 4 3 5 2 3 4 6 8 8 4 8 4 6 4 5 6 2 3 4 3 1 1 3 5 5 5
10 8 10 12 4 4 2 1 1 2 1 1 2 2 2 4 4 5 4 6 3 1 1 1 1 3 9 12 7 1 5 1 0 3 2 1 1 3 1 2 4 5 4 3 1 4 2 2 1 1 3 4 3 5 6 2 4 5 2 3 4 2 5 3 2 5 1 8 3 4 8 4 6 5 6 7 4 3 4 0 3 1 1 3 5 5 5 5
10 9 5 8 2 5 5 2 2 1 1 2 2 2 4 3 2 5 4 1 1 5 5 4 0 5 8 2 5 7 7 1 2 4 8 5 6 6 4 7 4 3 2 4 5 2 1 2 1 2 2 8 4 8 4 5 2 5 7 7 5 2 3 3 2 2 5 7 0 1 5 2 15 5 4 7 10 3 4 2 1 3 4 5 5 5 5 4
9 8 2 5 3 3 0 0 1 1 2 3 2 3 3 5 7 7 2 4 2 5 3 4 7 8 7 6 4 3 2 6 2 1 4 0 6 6 1 4 7 7 6 4 4 2 5 2 1 1 4 2 6 9 2 2 1 6 8 7 5 2 1 4 4 2 4 6 4 0 1 6 3 5 8 11 11 7 4 3 4 5 6 6 6 5 5 4
8 5 2 2 2 1 2 2 1 1 3 4 4 5 3 4 6 6 4 2 1 1 5 3 5 5 10 9 6 7 2 2 7 3 4 4 4 5 5 6 2 1 6 2 8 7 1 4 6 4 2 3 4 8 12 9 9 9 3 10 9 8 5 5 3 5 7 7 1 3 1 7 2 4 1 6 9 6 4 3 4 5 5 5 4 4 3 4
6 2 0 1 2 1 4 3 3 5 8 6 5 3 8 9 3 6 5 2 1 2 2 5 7 8 5 0 1 7 5 2 4 5 4 8 7 5 7 7 5 3 2 6 3 2 11 6 5 12 1 10 11 4 6 6 2 2 3 6 4 10 5 4 5 4 2 1 1 1 6 5 5 3 6 4 5 9 8 4 3 6 6 3 0 3 6 7
1 0 2 1 2 3 5 4 5 8 10 7 5 4 11 7 4 2 3 3 1 4 5 7 4 4 3 3 1 7 2 4 4 4 1 4 2 8 5 5 10 13 7 9 4 2 2 3 2 2 4 13 9 5 4 6 5 4 5 8 8 5 5 1 1 0 2 3 10 2 7 8 7 9 11 16 11 10 5 7 7 7 3 2 6 7 7 7
4 0 1 2 2 5 6 5 6 6 6 7 5 7 8 1 2 1 2 2 3 11 6 9 4 6 5 6 4 5 2 5 2 5 5 2 4 5 4 5 5 8 10 11 3 3 9 5 2 3 4 3 0 1 1 2 3 7 5 6 2 2 4 5 5 2 1 6 8 3 10 9 5 14 3 3 1 3 3 8 9 9 8 6 7 6 6 5
4 1 2 2 4 8 6 6 8 5 4 5 9 7 1 3 1 0 1 2 2 3 4 4 2 7 4 8 6 8 3 7 6 5 4 6 4 6 9 2 6 12 14 4 7 3 5 3 2 0 1 5 3 2 3 1 1 6 5 3 7 4 2 2 4 4 2 2 5 5 4 8 9 15 1 4 5 6 6 6 7 9 11 10 10 8 6 5
2 1 3 3 8 9 7 6 5 9 6 8 2 6 3 3 2 1 1 3 1 1 6 3 4 3 5 6 3 3 7 7 8 7 6 3 4 4 13 8 4 11 12 10 6 2 2 5 3 2 2 2 1 4 9 5 3 0 3 2 1 4 3 5 8 4 6 6 1 10 0 10 7 5 5 7 6 7 9 6 7 11 11 9 7 6 6 5
1 2 3 1 8 9 9 6 4 4 4 7 5 4 2 3 3 4 3 2 1 1 1 1 0 4 4 5 9 6 5 5 10 8 6 3 8 2 4 7 5 5 11 13 7 4 3 3 6 1 3 2 2 4 8 10 9 3 2 3 1 0 2 4 1 4 5 3 4 3 9 10 7 7 5 7 8 9 8 8 8 9 9 8 6 6 5 5
1 0 1 3 8 10 9 6 1 4 3 2 3 2 3 3 2 4 3 5 2 2 1 2 0 2 2 4 3 6 5 6 6 6 4 3 7 2 3 5 6 6 5 7 7 4 3 2 6 2 1 5 8 5 10 14 15 12 13 11 13 8 4 4 9 1 3 3 4 3 12 12 9 6 8 9 8 5 6 8 8 8 8 7 6 6 5 3
1 4 2 6 9 12 9 6 3 2 1 5 6 6 4 4 3 5 4 1 2 2 1 1 2 1 1 1 1 2 4 6 7 5 4 8 6 5 1 7 6 8 10 7 12 7 8 4 6 6 9 11 7 4 2 3 4 2 4 8 8 7 6 5 7 5 1 4 2 3 1 21 3 8 5 6 4 4 2 5 3 4 7 6 5 3 2 3
2 3 2 8 9 9 7 4 3 3 4 2 4 1 1 3 4 4 6 3 4 3 2 2 5 2 2 1 1 1 1 1 6 7 3 7 1 2 5 7 4 6 7 1 3 1 4 3 2 3 1 2 1 2 3 2 1 3 5 1 3 5 6 8 7 7 7 2 4 3 5 17 3 4 1 2 5 5 5 6 5 4 3 3 2 2 5 3
1 1 0 2 6 4 8 8 8 8 6 1 4 3 4 2 5 5 5 8 6 4 6 4 1 3 1 2 1 1 2 2 0 2 1 0 3 1 5 7 4 4 5 5 9 6 5 3 7 2 1 1 2 3 2 3 1 1 2 3 4 4 3 3 2 1 3 8 10 8 13 15 3 1 2 2 1 1 4 4 1 3 3 2 2 2 2 3
1 1 2 1 1 4 10 4 5 6 7 7 4 6 5 3 5 9 9 8 4 2 4 5 7 4 4 4 4 2 2 2 1 2 1 0 1 1 6 8 6 3 1 4 1 2 7 5 8 8 11 11 7 9 8 6 8 4 3 5 7 10 7 4 6 3 7 6 8 7 11 16 11 2 4 3 4 3 4 5 4 0 4 3 3 3 4 3
1 2 2 1 1 3 5 2 1 2 7 8 8 7 6 6 1 4 8 6 10 4 7 2 3 6 3 5 4 5 6 3 3 1 2 2 1 2 2 6 6 2 3 3 7 2 3 1 6 10 13 14 10 3 6 6 4 5 5 9 7 8 11 9 4 6 14 13 10 9 14 18 20 14 4 3 2 2 4 6 4 5 5 5 5 4 4 4
2 3 3 4 1 5 2 3 3 3 3 7 6 4 8 9 3 1 6 4 7 8 4 4 4 8 3 6 9 8 11 6 5 4 7 4 1 1 1 5 2 7 9 2 8 3 2 3 6 6 7 5 3 2 1 10 10 12 12 10 12 10 10 12 12 16 13 4 13 13 13 11 22 21 10 6 6 7 6 5 6 5 5 4 4 4 5 4
4 3 1 3 4 5 8 8 10 8 5 2 4 1 5 9 8 6 2 3 2 5 6 1 7 12 12 14 7 5 7 8 8 7 7 7 4 1 2 4 3 6 5 1 4 2 3 2 3 1 4 3 2 0 2 1 3 3 7 9 10 10 8 14 18 19 10 10 17 15 7 12 20 20 6 5 8 8 5 7 7 6 4 5 6 6 6 6
3 3 3 3 1 2 9 4 7 7 8 6 3 5 5 9 12 10 5 4 4 4 8 6 11 13 13 11 11 7 9 6 8 9 5 5 9 4 2 2 2 5 4 2 3 0 2 3 0 3 4 6 1 3 3 1 1 2 1 3 5 7 13 16 17 16 15 13 13 15 12 13 12 15 4 4 6 4 5 5 3 2 6 6 6 6 7 8
7 5 2 2 1 2 1 3 8 10 10 10 7 5 5 5 8 6 4 7 5 7 7 12 9 11 11 10 11 10 11 13 12 11 8 7 2 5 5 7 2 2 2 1 1 3 2 3 5 2 2 8 8 4 4 3 2 3 6 5 7 8 9 11 9 10 9 12 14 16 15 17 16 8 5 9 10 4 5 7 7 7 6 6 6 7 8 9
1 3 2 2 2 2 2 1 3 9 7 7 9 9 6 9 8 6 5 6 10 6 8 16 12 6 8 11 11 13 11 13 12 12 11 13 9 8 7 3 7 4 1 2 1 0 2 2 3 2 3 9 9 5 4 4 4 6 10 13 15 13 8 4 7 8 9 14 13 9 12 17 16 2 7 13 5 3 10 11 10 5 5 6 8 9 9 8
2 3 1 1 3 1 2 2 3 5 9 9 10 13 9 13 8 4 3 4 7 10 12 16 14 9 7 12 15 15 12 6 7 4 7 12 8 5 10 6 10 9 6 5 2 5 4 6 5 4 4 7 4 3 2 4 2 4 12 21 18 11 11 10 10 10 12 9 8 10 16 14 13 6 4 10 12 10 11 11 11 10 6 6 7 10 9 8
Wind_Direction
156 178 162 154 147 150 134 124 114 96 92 82 75 60 49 26 27 16 13 9 5 4 2 4 11 10 4 357 353 352 353 86 50 47 86 245 159 347 281 296 334 317 10 61 34 44 340 338 305 283 33 68 263 93 257 30 123 58 103 117 336 202 59 257 216 184 172 126 197 174 185 116 139 295 209 78 42 88 68 100 50 36 43 67 88 104 124 137
159 178 172 159 154 143 133 122 104 109 88 91 77 66 43 30 23 16 15 13 9 5 4 4 5 7 0 350 349 349 28 70 47 102 223 170 261 257 261 275 290 2 287 67 113 92 53 316 271 145 97 205 345 125 39 270 76 111 168 94 202 195 288 328 278 134 111 181 171 194 173 142 204 139 225 120 232 130 101 93 81 70 47 60 81 116 130 139
163 176 172 162 153 138 135 127 122 127 111 87 76 52 39 30 18 17 14 12 11 8 5 4 3 0 356 345 339 346 343 60 55 267 215 224 245 244 251 253 4 67 73 140 196 141 182 234 263 143 102 111 337 186 45 256 74 225 111 129 228 187 161 37 42 1 315 152 158 176 203 175 212 140 175 170 181 139 167 150 55 133 164 161 155 142 146 150
165 178 172 166 150 145 148 139 143 129 117 108 67 44 30 22 19 15 14 12 11 9 6 5 358 357 349 339 338 331 57 77 212 239 277 344 276 260 245 285 54 25 107 181 189 217 258 304 227 141 80 118 248 88 120 257 93 267 74 161 187 190 121 321 15 333 354 142 161 159 102 111 191 167 146 173 104 242 237 200 168 196 176 177 176 164 160 162
170 177 182 173 159 161 147 146 129 118 118 93 56 31 19 16 14 12 10 10 8 8 7 1 359 349 342 340 334 359 93 70 257 182 226 258 264 262 254 58 33 56 155 283 344 263 258 276 32 71 108 227 63 70 255 245 170 85 182 183 181 77 67 257 209 14 354 215 114 123 115 183 110 86 177 139 161 216 211 219 207 192 166 160 173 179 166 173
171 177 185 182 173 173 164 155 127 123 83 60 30 18 7 7 5 7 6 5 4 4 3 3 354 347 336 327 12 61 90 143 228 28 213 236 250 249 260 283 104 97 65 6 158 313 38 341 79 42 349 99 193 144 258 173 146 107 310 53 29 142 133 262 41 329 47 66 94 90 192 115 142 193 226 148 183 231 214 182 194 196 166 175 159 153 171 179
144 168 188 192 183 193 178 149 154 134 78 30 3 6 355 358 352 359 359 359 360 359 3 357 355 346 332 323 174 95 134 232 40 250 211 246 247 237 262 303 7 33 55 34 359 60 112 274 93 227 111 122 255 125 190 152 62 104 182 124 25 97 111 166 141 34 58 89 99 198 71 142 161 162 290 213 237 208 203 226 137 151 130 132 151 175 176 185
145 158 184 201 154 249 179 164 162 127 40 337 340 341 348 343 344 347 352 350 354 356 357 358 351 352 352 76 57 29 51 251 249 240 230 256 321 291 34 43 130 58 68 195 89 30 81 157 221 187 137 158 212 133 204 80 30 116 72 182 161 62 161 103 104 69 60 100 115 77 121 226 173 191 59 239 233 226 194 138 107 116 131 150 158 176 185 187
152 159 179 183 194 207 200 199 174 51 251 290 345 320 332 337 331 340 336 344 346 351 353 358 354 347 302 101 120 95 252 256 225 292 185 1 310 358 21 27 106 62 270 264 175 177 113 278 223 173 247 185 105 94 359 113 318 132 180 127 90 100 120 132 72 46 95 104 66 74 309 292 238 227 244 223 236 204 165 118 127 129 139 161 176 182 182 189
153 163 174 177 195 205 208 208 218 221 242 300 302 319 323 329 328 329 327 334 338 345 348 356 356 334 40 82 57 166 259 256 296 293 134 263 339 23 60 14 57 48 41 306 55 66 103 222 148 263 148 92 94 84 176 84 205 149 106 117 130 173 102 348 116 166 234 100 46 119 300 296 285 62 278 278 226 150 148 142 150 144 163 179 181 188 193 188
161 176 180 188 198 199 203 208 208 219 231 205 15 346 341 324 324 321 328 325 332 326 348 351 354 1 83 80 115 207 181 32 272 329 292 266 37 76 18 314 330 67 78 15 108 153 166 208 227 209 49 233 83 334 77 202 129 96 121 77 83 108 113 44 89 204 75 331 69 115 260 204 308 83 239 226 267 159 160 167 169 164 175 185 191 189 199 201
171 175 185 190 192 192 196 203 213 219 231 341 6 357 326 319 315 325 321 321 312 322 332 349 359 50 93 75 145 206 207 250 288 306 307 321 137 170 208 211 166 141 119 126 290 266 146 216 53 56 192 108 58 95 50 155 87 147 102 80 291 19 42 268 151 227 90 276 211 181 28 306 142 225 240 236 254 146 158 173 181 186 192 194 195 197 198 208
173 177 187 183 191 193 186 196 205 221 251 287 329 325 323 311 310 310 306 305 306 310 322 358 350 181 104 116 249 257 281 327 328 344 330 75 35 223 207 215 225 177 194 152 192 229 212 135 99 80 208 98 161 118 208 80 27 101 42 128 39 16 331 257 257 79 93 270 28 62 291 263 248 240 269 222 168 121 146 176 194 202 201 206 203 205 213 221
172 178 176 175 188 189 183 192 202 231 261 306 304 314 309 306 301 293 292 281 292 301 335 338 59 88 84 239 293 263 308 10 334 8 318 319 74 344 12 360 34 66 64 110 183 201 15 132 109 126 93 95 140 277 78 4 37 133 216 67 138 66 271 294 171 191 131 322 5 74 204 283 265 270 285 244 160 153 184 202 207 211 210 212 213 212 216 222
174 181 178 172 182 185 187 194 206 243 273 294 303 303 301 301 297 293 286 285 275 265 21 62 64 94 65 282 280 287 315 47 19 337 292 57 112 40 25 18 63 68 117 135 158 220 195 58 68 43 59 285 86 83 38 50 357 97 59 301 323 134 277 317 84 156 160 294 32 87 311 248 277 278 284 338 152 149 185 220 238 228 224 222 221 219 220 224
183 191 195 178 175 175 178 193 231 257 280 291 299 296 290 288 289 289 282 264 267 264 178 62 21 119 103 317 229 313 3 101 198 240 270 110 84 158 193 144 351 358 27 352 41 3 54 87 78 171 107 24 66 96 79 44 333 5 114 262 281 84 225 353 293 211 174 128 345 166 223 323 314 326 331 331 130 156 183 221 226 230 229 229 223 220 221 230
180 189 187 182 183 184 185 212 228 246 273 292 297 292 286 278 283 289 277 268 282 121 142 103 146 148 144 272 310 56 224 234 301 353 348 90 115 216 96 43 38 28 16 10 17 53 0 63 289 44 53 134 164 99 77 22 335 301 21 195 210 156 180 257 299 299 109 107 224 298 227 247 253 277 298 304 225 188 215 235 239 236 231 224 218 219 220 220
185 185 185 194 200 193 198 197 212 256 295 302 293 270 274 276 298 326 202 186 209 158 215 216 121 98 269 23 169 214 141 117 40 250 247 254 148 47 113 79 351 66 45 34 351 73 338 58 43 179 6 10 67 70 107 204 187 206 203 240 304 282 170 202 153 257 134 29 172 308 237 269 273 279 260 241 232 196 223 227 231 229 234 237 217 218 225 223
182 185 191 197 196 207 209 212 245 310 320 311 294 258 238 276 255 147 25 88 88 52 94 191 122 143 213 205 209 64 49 179 178 61 216 15 314 112 70 95 89 89 44 68 284 89 7 54 25 47 151 230 215 149 164 193 154 168 167 176 168 132 256 209 243 295 140 189 239 228 229 247 262 275 283 268 223 216 228 239 252 253 244 238 226 221 222 223
180 186 194 199 201 208 214 220 307 331 354 351 4 65 57 60 33 32 353 338 261 173 207 180 140 121 61 57 119 263 244 355 105 325 270 289 89 53 49 88 26 52 93 143 172 46 100 99 159 183 208 210 225 177 179 195 148 119 90 110 148 135 343 302 306 268 257 86 237 233 251 258 269 265 267 273 275 228 239 241 241 242 240 234 234 232 229 225
182 185 191 192 195 201 196 258 323 346 2 57 338 86 155 173 114 216 231 249 212 254 94 63 149 154 177 141 142 147 113 351 73 209 254 290 97 97 170 62 41 93 330 183 137 293 67 76 247 220 195 196 217 190 124 63 59 121 109 64 341 122 174 242 225 315 328 131 290 295 294 268 256 263 264 273 287 266 224 227 238 238 235 233 229 238 239 235
183 182 184 184 191 182 186 239 343 330 350 114 72 94 108 186 88 247 121 170 304 50 95 132 58 60 47 100 202 151 73 92 27 322 289 115 314 108 245 101 138 162 230 99 45 27 47 166 244 226 210 135 87 101 100 118 94 46 118 142 64 325 182 296 320 340 300 81 259 336 323 278 268 260 262 252 252 255 238 213 225 224 234 235 236 242 246 251
176 181 182 187 182 179 164 177 337 37 32 54 42 53 122 221 208 176 110 111 131 317 108 88 83 116 37 326 254 124 122 146 182 244 234 82 73 173 143 99 138 164 84 107 135 95 58 294 244 240 146 87 35 77 82 56 65 103 57 72 199 240 113 289 288 326 266 154 267 2 329 287 280 258 252 249 239 250 260 248 246 227 235 234 231 227 234 238
178 178 175 181 160 168 177 162 359 58 41 124 89 191 200 166 117 99 71 135 180 269 171 217 148 150 182 148 202 127 133 202 105 207 258 126 152 192 105 149 160 113 185 160 143 144 187 226 271 134 121 121 131 54 88 67 277 330 129 132 187 255 279 168 237 289 298 333 41 338 302 291 288 316 316 286 262 252 265 266 272 259 235 239 253 265 236 237
179 176 176 163 162 153 163 89 41 253 160 82 256 258 194 171 123 150 76 2 15 330 276 329 118 248 187 26 107 142 223 55 350 169 177 138 163 92 210 196 103 193 179 189 132 130 273 267 79 112 73 80 101 70 147 120 22 335 253 179 194 157 117 66 2 40 16 346 323 73 343 299 294 290 258 280 348 324 289 251 256 255 250 242 246 243 252 253
175 175 167 161 154 156 139 73 318 154 82 113 189 309 137 146 114 129 88 85 285 254 33 199 85 218 102 177 68 183 69 74 245 253 118 217 202 148 102 148 128 201 201 158 174 183 196 9 126 160 132 98 83 131 230 115 172 77 263 167 179 133 118 105 38 58 326 209 291 79 134 279 307 287 280 291 282 269 277 287 270 266 263 242 233 243 243 238
175 176 164 162 155 142 103 91 232 70 65 301 256 193 171 143 103 90 65 11 345 202 156 293 93 231 54 195 142 112 134 237 4 19 62 335 142 324 140 221 73 23 163 139 49 245 83 75 81 73 87 103 105 106 246 139 110 221 237 190 104 105 99 128 96 113 229 236 307 6 143 227 301 286 224 244 256 274 299 277 261 257 256 252 253 251 240 240
189 173 166 172 167 151 109 206 46 74 146 256 302 181 226 174 75 65 79 92 271 139 133 241 231 326 35 174 76 145 213 157 107 231 126 288 136 357 92 198 161 186 199 83 184 266 162 160 131 130 86 100 173 205 201 127 128 213 220 151 115 129 141 108 93 127 212 30 287 329 348 297 235 273 291 265 271 274 259 258 260 259 265 281 246 239 245 238
47 179 166 176 173 186 73 64 68 86 247 250 277 296 54 76 88 105 121 130 234 82 284 100 277 97 47 73 54 104 88 3 133 237 308 37 36 142 97 224 168 188 222 136 186 249 353 165 205 150 139 193 230 297 304 155 98 259 158 79 70 68 63 100 96 68 334 43 269 208 185 228 275 237 272 358 282 283 254 255 266 270 267 252 212 197 171 160
26 177 168 175 153 98 312 75 199 239 256 18 303 17 46 76 53 85 59 235 123 217 58 185 120 188 136 141 111 241 87 355 65 96 41 148 321 27 68 178 103 86 214 32 84 201 270 337 158 102 185 188 141 46 87 46 137 123 72 65 24 33 30 18 70 89 44 280 251 196 203 158 288 260 209 158 216 208 275 301 289 322 352 170 194 168 174 176
34 15 178 156 154 187 111 316 228 237 227 79 59 53 69 37 123 106 182 227 57 101 61 107 184 86 145 153 150 284 82 108 75 123 93 21 15 39 24 39 41 49 49 21 49 333 2 2 107 300 61 107 92 73 1 58 99 110 90 114 47 341 13 27 343 39 140 263 267 247 199 161 221 292 279 238 270 229 174 230 284 249 193 187 199 205 209 200
21 15 146 162 181 136 162 224 193 236 36 73 66 70 80 69 337 160 212 45 190 195 151 178 237 146 170 144 126 167 153 89 183 157 150 171 157 164 219 163 153 100 238 189 222 349 309 233 250 26 269 123 95 82 346 11 4 79 89 70 119 253 33 296 22 254 207 225 242 350 184 30 249 221 266 289 287 288 223 194 182 203 208 239 238 235 225 215
15 6 121 183 104 161 215 222 72 136 51 30 64 53 88 110 200 221 249 187 255 133 245 132 169 163 160 130 175 153 111 146 209 191 95 102 145 226 250 175 198 146 191 216 145 117 269 291 34 215 6 238 137 130 184 85 238 118 142 145 117 167 158 238 262 234 303 290 268 353 63 253 271 305 238 250 261 245 241 254 234 173 204 213 227 232 240 237
359 358 59 182 176 90 117 130 164 119 88 40 74 44 54 166 231 212 170 204 181 61 115 132 129 127 150 171 198 152 86 271 147 209 132 148 140 199 257 264 181 280 85 125 172 178 211 314 266 132 258 183 190 177 175 174 171 204 121 156 178 153 167 211 183 202 223 221 286 280 94 234 103 247 248 229 246 272 280 264 234 235 217 220 227 206 229 235
332 308 124 118 155 90 135 143 108 104 88 79 71 115 174 212 224 168 193 196 272 66 57 127 123 141 209 333 166 184 136 204 189 132 162 141 208 185 180 213 223 134 155 133 250 85 210 213 251 194 227 163 185 210 139 97 104 233 168 79 109 220 122 191 201 162 241 331 336 215 214 189 175 258 278 252 290 301 291 307 280 255 263 315 339 222 222 225
7 352 119 102 163 152 141 148 120 109 117 112 117 172 211 194 193 143 201 174 167 119 124 96 89 127 189 193 334 190 296 122 215 126 252 204 216 189 208 191 193 192 163 189 169 185 75 257 297 198 29 177 192 131 197 153 195 228 115 210 210 179 121 93 353 31 96 35 257 151 303 272 301 282 234 249 245 255 300 317 316 294 267 183 229 232 229 227
26 76 40 188 170 163 147 151 135 117 118 148 153 211 219 298 197 216 17 143 191 133 139 134 234 147 171 202 186 185 236 76 182 133 224 165 299 205 216 241 181 187 203 161 257 186 156 234 321 131 228 281 157 166 99 6 152 102 189 232 111 96 120 145 212 348 158 210 265 115 233 285 58 283 348 26 51 299 268 255 264 270 283 288 263 259 264 257
355 311 238 208 171 152 143 144 128 120 119 179 197 204 59 217 298 251 26 357 70 112 120 138 223 128 198 161 214 178 219 149 202 167 206 179 240 198 186 202 203 191 201 198 179 254 135 255 276 4 202 281 347 131 306 349 14 150 189 211 132 260 262 297 98 239 236 268 272 276 235 261 202 248 129 321 314 298 291 261 256 260 264 261 269 276 280 286
323 332 324 216 141 146 143 142 128 142 135 214 151 199 226 237 335 254 53 130 90 10 160 228 127 223 142 191 165 157 160 175 180 193 144 221 204 205 188 178 216 201 193 162 195 227 75 180 281 348 121 302 12 121 203 196 326 37 69 143 172 102 169 149 198 172 121 233 148 283 136 260 196 238 136 233 248 260 268 261 241 243 243 247 254 260 264 298
352 86 255 100 139 129 123 119 127 145 149 195 175 220 138 187 252 274 302 63 17 69 246 230 303 147 185 207 155 162 223 171 167 201 177 203 195 286 179 194 183 195 183 181 203 144 240 160 235 283 305 88 194 196 209 155 161 203 136 218 226 27 228 115 308 149 176 186 191 260 293 256 251 188 184 211 227 236 234 234 239 243 245 243 244 251 266 252
223 121 267 116 135 129 118 109 132 196 147 163 157 206 136 191 204 253 240 79 105 335 127 105 314 153 185 177 242 171 169 169 177 182 188 231 182 255 217 183 160 177 154 180 192 170 179 160 188 172 61 223 238 220 187 181 184 179 180 197 186 144 153 166 264 34 123 177 239 145 261 281 262 163 191 204 229 251 239 221 241 250 249 247 245 241 230 247
237 169 206 140 148 139 126 152 200 157 147 185 196 175 195 177 147 192 196 180 124 129 355 96 337 249 77 112 121 181 145 179 184 179 221 192 218 191 308 5 237 159 149 180 193 207 168 154 116 189 202 206 219 256 284 235 266 249 188 217 183 184 143 140 212 257 5 249 162 165 245 268 207 160 153 175 202 193 178 163 202 225 233 234 234 247 282 243
214 191 334 159 169 154 135 201 157 170 202 214 87 40 153 189 169 162 156 177 195 154 148 188 192 124 307 119 60 78 118 175 177 202 186 210 239 198 309 321 268 170 150 306 148 276 82 113 151 282 330 316 337 324 19 32 160 270 265 103 103 198 189 179 183 190 164 233 227 252 227 265 291 27 352 291 249 256 232 201 193 206 244 266 278 249 231 255
56 283 343 245 194 163 173 194 185 202 202 65 155 201 198 178 160 158 179 177 181 165 201 202 127 172 177 99 86 83 306 177 325 127 209 222 193 122 358 1 0 158 144 224 162 211 167 256 154 157 11 340 347 345 354 339 60 170 209 208 181 198 176 194 111 114 188 209 200 151 238 253 247 341 71 25 34 179 242 271 251 302 285 234 255 275 277 258
329 280 275 328 350 194 199 188 210 197 203 200 174 202 178 224 214 189 171 182 175 176 155 218 205 159 183 150 152 134 79 99 296 301 98 324 261 21 348 26 1 95 58 315 224 236 183 184 154 180 207 212 223 197 202 207 203 225 206 211 193 184 178 117 231 202 225 244 205 204 245 258 256 54 14 5 16 347 307 313 330 221 235 261 253 243 248 230
162 153 243 332 218 228 241 70 81 191 197 192 214 218 186 211 212 204 165 195 180 185 190 139 132 130 180 158 184 221 244 184 146 249 51 316 306 3 50 359 35 83 269 76 17 67 174 219 196 197 200 220 220 202 234 134 87 173 235 193 211 204 185 189 134 188 219 227 227 228 235 256 269 264 248 292 358 293 298 323 325 321 318 298 282 298 310 295
286 206 161 207 40 277 277 152 186 149 203 172 216 161 211 209 187 264 184 202 201 182 195 170 157 168 196 181 203 212 209 217 218 261 249 229 285 282 317 90 28 16 339 344 349 74 75 203 233 219 230 230 151 151 72 164 178 203 202 213 209 195 186 187 191 223 216 212 252 236 233 247 261 263 256 276 280 282 279 271 286 288 283 297 316 316 297 290
211 245 185 217 141 205 213 235 205 204 228 188 226 181 202 199 201 210 170 238 151 196 169 239 186 193 175 190 171 191 177 202 170 204 233 242 245 269 333 5 65 322 7 11 332 116 136 183 297 72 266 221 131 122 55 76 204 212 215 217 206 208 191 198 218 228 208 200 234 245 210 228 253 265 258 227 248 244 246 256 244 245 284 313 316 313 296 281
268 355 278 332 167 230 205 213 185 211 209 199 245 201 200 201 206 201 172 166 175 216 204 209 204 205 199 188 181 196 172 169 215 216 189 180 199 179 227 315 285 33 64 27 10 176 91 245 89 75 298 300 227 112 59 59 355 335 283 232 228 214 219 213 224 229 225 231 239 253 251 240 250 264 271 238 249 230 247 253 285 298 274 269 283 291 286 275
201 207 285 341 260 302 76 127 162 186 212 198 219 213 215 221 220 198 188 164 183 211 193 222 213 204 199 196 191 202 193 192 188 201 197 171 189 181 205 197 127 354 53 114 122 306 128 269 67 40 336 278 273 140 148 190 153 255 272 263 239 231 228 231 241 255 263 264 258 260 270 273 257 258 299 259 258 286 293 284 271 265 276 272 260 251 257 265
350 71 360 33 328 241 202 125 171 178 197 200 215 223 218 220 227 186 213 193 192 176 179 211 216 196 202 207 210 217 206 202 205 206 182 173 197 196 172 253 146 143 133 101 65 223 137 235 70 104 221 272 275 254 223 200 207 229 245 250 249 238 241 222 221 217 221 232 243 257 264 258 268 256 248 274 299 286 273 273 278 278 261 260 261 262 260 265
204 288 74 2 300 253 218 217 173 142 209 200 203 214 204 218 214 160 247 253 218 199 184 200 205 184 211 211 217 219 217 206 220 207 174 190 190 164 189 179 161 154 174 159 159 138 171 141 157 143 212 236 278 139 178 136 116 263 247 236 229 233 230 240 241 228 224 218 231 231 240 253 273 276 262 278 276 269 276 275 272 263 249 248 266 269 268 266